Tracking 18673 objects as of 26-June-2017
HD Live streaming from Space Station
objects crossing your sky now

COSMOS 1481 DEB

Track COSMOS 1481 DEB now!


NORAD ID: 14192
Int'l Code: 1983-070E
Perigee: 2,185.6 km
Apogee: 37,743.9 km
Inclination: 67.6 °
Period: 708.9 minutes
Semi major axis: 26335 km
RCS: 2.531 m2 (large)
Launch date: July 8, 1983
Source: Commonwealth of Independent States (former USSR) (CIS)
Launch site: PLESETSK MISSILE AND SPACE COMPLEX (PKMTR)

Note: This is SATELLITE DEBRIS
Your satellite tracking list
Your tracking list is empty





NASA's NSSDC Master Catalog

Two Line Element Set (TLE):
1 14192U 83070E   17176.56048316 +.00000756 +00000-0 +00000-0 0  9998
2 14192 067.6267 086.1567 6750954 358.7995 095.2783 02.03134620173026
Source of the keplerian elements: AFSPC